Location: Unspecified
(0.0000°N, 0.0000°E)
Time: 03:50:14
(UTC+00:00)

Explorer 11/Cluster Stage 4 - Visible Passes

Search period start: 29 June 2016 00:00
Search period end: 09 July 2016 00:00
Orbit: 467 x 1265 km, 28.8° (Epoch: 28 June)

Date Brightness Start Highest point End Pass type
(mag) Time Alt. Az. Time Alt. Az. Time Alt. Az.
01 Jul 9.1 20:46:40 10° NW 20:46:40 10° NW 20:46:40 10° NW visible
02 Jul 8.7 20:36:48 10° NW 20:37:44 15° NW 20:37:44 15° NW visible
03 Jul 8.4 18:40:05 10° N 18:42:27 13° NNE 18:44:38 10° NE visible
03 Jul 8.2 20:27:00 10° NW 20:28:50 22° NW 20:28:50 22° NW visible
04 Jul 9.1 05:38:26 10° S 05:40:23 11° SSE 05:42:24 10° SE visible
04 Jul 8.3 18:29:29 10° NNW 18:33:01 17° NNE 18:36:08 10° ENE visible
04 Jul 7.6 20:17:14 10° WNW 20:19:57 32° WNW 20:19:57 32° WNW visible
05 Jul 8.9 05:28:06 10° S 05:30:47 13° SSE 05:33:42 10° ESE visible
05 Jul 7.0 20:07:31 10° WNW 20:11:05 44° W 20:11:05 44° W visible
06 Jul 8.8 05:17:59 10° S 05:21:11 15° SSE 05:24:44 10° ESE visible
06 Jul 6.7 19:57:52 10° WNW 20:02:15 49° WSW 20:02:15 49° WSW visible
07 Jul 8.6 05:08:00 10° S 05:11:33 17° SSE 05:15:35 10° ESE visible
07 Jul 6.9 19:48:15 10° WNW 19:53:13 41° SSW 19:53:25 40° SSW visible
08 Jul 8.5 04:58:06 10° SSW 05:01:55 20° SSE 05:06:19 10° E visible
08 Jul 7.3 19:38:42 10° W 19:43:36 33° SSW 19:44:37 30° S visible
